This demonstration page uses our WeatherBlox Daily Observations layout. Learn more.

38.88101, -77.10428

Hourly Observations for January 4, 2020

Temp ( °F °C ) Dew Point ( °F °C ) Humidity (%) Winds ( mph kmh ) Pressure ( in mb ) Visibility ( mi km ) Precip ( " mm )
12:52 am 00:52 Cloudy with Light Rain 51 10.6 51 10.6 100 100 Calm 29.76 1008 6 9.65604 0.01 0.254
1:19 am 01:19 Cloudy with Mist and Fog 51 10.6 50 10 96 96 Calm 29.75 1007 6 9.65604 0.001 0.001
1:31 am 01:31 Cloudy with Light Rain 51 10.6 51 10.6 100 100 SSW 3 6 29.77 1008 6 9.65604 0.001 0.001
1:52 am 01:52 Cloudy with Mist and Fog 52 11.1 52 11.1 100 100 SSE 6 9 29.75 1007 6 9.65604 0.01 0.254
2:52 am 02:52 Cloudy with Light Rain 52 11.1 52 11.1 100 100 S 7 11 29.76 1008 6 9.65604 0.01 0.254
2:55 am 02:55 Mostly Cloudy with Light Rain 52 11.1 52 11.1 100 100 S 8 13 29.75 1007 0.5 0.80467 0.001 0.001
3:06 am 03:06 Mostly Cloudy with Fog 51 10.6 51 10.6 100 100 S 7 11 29.75 1007 0.25 0.402335 0.001 0.001
3:47 am 03:47 Mostly Cloudy with Fog 52 11 52 11 100 100 SW 3 6 29.71 1006 0.5 0.80467 0.001 0.001
3:52 am 03:52 Mostly Cloudy with Fog 52 11.1 52 11.1 100 100 SSW 5 7 29.71 1006 0.5 0.80467 0.001 0.001
4:07 am 04:07 Cloudy with Mist and Fog 53 11.7 52 11.1 96 96 SSW 6 9 29.71 1006 1.75 2.816345 0 0
4:13 am 04:13 Cloudy with Mist and Fog 53 11.7 52 11.1 96 96 SW 3 6 29.71 1006 3 4.82802 0 0
4:20 am 04:20 Cloudy with Light Rain 53 11.7 52 11.1 96 96 Calm 29.69 1005 2.5 4.02335 0.001 0.001
4:25 am 04:25 Cloudy with Light Rain 51 10.6 51 10.6 100 100 Calm 29.69 1005 0.75 1.207005 0.001 0.001
4:40 am 04:40 Cloudy with Light Rain 51 10.6 51 10.6 100 100 Calm 29.7 1006 0.25 0.402335 0.001 0.001
4:47 am 04:47 Mostly Cloudy with Light Rain 52 11 52 11 100 100 Calm 29.7 1006 0.25 0.402335 0.001 0.001
4:52 am 04:52 Cloudy with Light Rain 52 11.1 51 10.6 97 97 Calm 29.7 1006 0.5 0.80467 0.001 0.001
5:01 am 05:01 Cloudy with Mist and Fog 52 11.1 52 11.1 100 100 Calm 29.7 1006 0.75 1.207005 0.001 0.001
5:52 am 05:52 Cloudy with Light Rain 52 11.1 52 11.1 100 100 S 6 9 29.68 1005 0.5 0.80467 0.001 0.001
6:00 am 06:00 Mostly Cloudy with Light Rain 52 11.1 52 11.1 100 100 SW 6 9 29.7 1006 6 9.65604 0.001 0.001
6:44 am 06:44 Cloudy with Fog 53 11.7 53 11.7 100 100 SSW 3 6 29.69 1005 7 11.26538 0.001 0.001
6:52 am 06:52 Cloudy with Fog 53 11.7 53 11.7 100 100 Calm 29.69 1006 9 14.48406 0.001 0.001
7:52 am 07:52 Mostly Cloudy with Fog 54 12.2 53 11.7 97 97 NW 6 9 29.71 1006 9 14.48406 0 0
8:07 am 08:07 Cloudy with Fog 53 11.7 53 11.7 100 100 S 7 11 29.7 1006 9 14.48406 0 0
8:20 am 08:20 Cloudy 52 11.1 52 11.1 100 100 S 8 13 29.7 1006 9 14.48406 0 0
8:52 am 08:52 Cloudy 53 11.7 52 11.1 96 96 S 8 13 29.69 1005 9 14.48406 0 0
9:52 am 09:52 Cloudy with Light Rain 54 12.2 54 12.2 100 100 S 6 9 29.7 1006 9 14.48406 0.001 0.001
10:52 am 10:52 Cloudy with Fog 55 12.8 55 12.8 100 100 S 3 6 29.68 1005 8 12.87472 0.001 0.001
11:24 am 11:24 Cloudy with Fog 55 12.8 54 12.2 96 96 S 6 9 29.65 1004 8 12.87472 0 0
11:52 am 11:52 Cloudy with Fog 55 12.8 55 12.8 100 100 S 3 6 29.64 1004 6 9.65604 0 0
12:52 pm 12:52 Cloudy with Fog 57 13.9 56 13.3 96 96 Calm 29.6 1002 9 14.48406 0 0
1:52 pm 13:52 Cloudy with Fog 57 13.9 56 13.3 96 96 Calm 29.56 1001 10 16.0934 0 0
2:52 pm 14:52 Cloudy with Fog 59 15 56 13.3 90 90 Calm 29.56 1001 10 16.0934 0 0
3:52 pm 15:52 Mostly Cloudy with Fog 58 14.4 55 12.8 90 90 Calm 29.56 1001 7 11.26538 0.01 0.254
4:18 pm 16:18 Cloudy with Light Rain 56 13.3 54 12.2 93 93 NNW 8 13 29.58 1002 5 8.0467 0.01 0.254
4:26 pm 16:26 Cloudy with Heavy Rain 57 13.9 54 12.2 90 90 NNW 15 24 29.58 1002 3 4.82802 0.06 1.524
4:52 pm 16:52 Cloudy with Rain 53 11.7 50 10 89 89 NW 13 20 29.61 1003 3 4.82802 0.17 4.318
5:26 pm 17:26 Cloudy with Light Rain 52 11.1 48 8.9 86 86 NNW 16 26 29.61 1003 8 12.87472 0.04 1.016
5:52 pm 17:52 Cloudy with Light Rain 51 10.6 47 8.3 86 86 N 14 22 29.62 1003 8 12.87472 0.05 1.27
6:52 pm 18:52 Cloudy with Light Rain 50 10 46 7.8 86 86 N 9 15 29.64 1004 10 16.0934 0.06 1.524
7:52 pm 19:52 Cloudy 50 10 45 7.2 83 83 NNW 9 15 29.65 1004 10 16.0934 0.001 0.001
8:52 pm 20:52 Cloudy 49 9.4 42 5.6 77 77 NNW 15 24 29.67 1005 10 16.0934 0 0
9:52 pm 21:52 Cloudy 49 9.4 39 3.9 69 69 NW 16 26 29.7 1006 10 16.0934 0 0
10:52 pm 22:52 Cloudy 47 8.3 36 2.2 66 66 NNW 16 26 29.73 1007 10 16.0934 0 0
11:52 pm 23:52 Cloudy 46 7.8 33 0.6 61 61 NW 15 24 29.74 1007 10 16.0934 0 0

Powered by AerisWeather